Regional Weather Roundup
Issued by NWS

Home | Current Version | Previous Version | Graphics & Text | Print | Product List | Glossary Off
Versions: 1 2 3 4 5 6 7 8 9 10 11 12 13 14 15 16 17 18 19 20 21 22 23 24 25 26 27 28 29 30 31 32 33 34 35 36 37 38 39 40 41 42 43 44 45 46 47 48 49 50

072
ASUS43 KMKX 191800
RWRWI

WISCONSIN REGIONAL WEATHER ROUNDUP
NATIONAL WEATHER SERVICE MILWAUKEE/SULLIVAN WI
1200 PM CST SUN NOV 19 2017

NOTE: "FAIR" INDICATES FEW OR NO CLOUDS BELOW 12,000 FEET WITH NO
SIGNIFICANT WEATHER AND/OR OBSTRUCTIONS TO VISIBILITY.

WIZ001-002-006>008-014>016-023>028-191900-
NORTHWEST WISCONSIN

CITY           SKY/WX    TMP DP  RH WIND       PRES   REMARKS
SUPERIOR ARPT  CLOUDY    23  10  59 W10       29.97F WCI  12
6HR MIN TEMP:  12; 6HR MAX TEMP:  23;

ASHLAND        CLOUDY    23   8  52 SW13      29.96F WCI  11
6HR MIN TEMP:  14; 6HR MAX TEMP:  23;

HAYWARD        CLOUDY    24   8  50 SW7       29.95F WCI  16
6HR MIN TEMP:  12; 6HR MAX TEMP:  24;

SIREN          CLOUDY    25  12  56 SW5       30.00F WCI  20
CUMBERLAND     MOSUNNY   27  10  50 W6G12     29.98F WCI  20
RICE LAKE      SUNNY     27  11  52 SW7       30.00F WCI  19
CHETEK         MOSUNNY   27  11  49 W6        29.99F WCI  21
LADYSMITH      MOSUNNY   27  11  51 W8        29.98F WCI  18
6HR MIN TEMP:  15; 6HR MAX TEMP:  27;

EAU CLAIRE     NOT AVBL
MENOMONIE      SUNNY     31  12  46 SW7       30.01F WCI  24
6HR MIN TEMP:  17; 6HR MAX TEMP:  31;

NEW RICHMOND   NOT AVBL
OSCEOLA        SUNNY     29  12  49 SW7       30.03F WCI  22
$$

WIZ003>005-009-010-017-018-191900-
NORTH CENTRAL WISCONSIN

CITY           SKY/WX    TMP DP  RH WIND       PRES   REMARKS
MANITOWISH WTR CLOUDY    18  12  76 W8        29.90F WCI   8
ARBOR VITAE    SUNNY     22  14  72 NW12      29.90F WCI  10
WOODRUFF       SUNNY     22  14  72 NW12      29.90F WCI  10
RHINELANDER    SUNNY    N/A N/A N/A W9        29.91F
                                      6HR PCP: TRACE;

EAGLE RIVER    MOSUNNY   18   9  68 W8        29.89F WCI   8
6HR MIN TEMP:  15; 6HR MAX TEMP:  18;

LAND O LAKES   FLURRIES  18  11  76 W8        29.90F WCI   7
PHILLIPS       MOSUNNY   22   9  55 W10       29.92F WCI  12
6HR MIN TEMP:  12; 6HR MAX TEMP:  24;

TOMAHAWK       SUNNY     22   8  53 W9G16     29.94F WCI  12
MEDFORD        SUNNY     23  10  55 W9G16     29.94F WCI  13
MERRILL        SUNNY     25   8  48 NW12      29.95F WCI  14
6HR MIN TEMP:  17; 6HR MAX TEMP:  25;

$$

WIZ029-030-035-036-043>047-191900-
CENTRAL WISCONSIN

CITY           SKY/WX    TMP DP  RH WIND       PRES   REMARKS
WAUSAU         SUNNY     24   9  52 W10       29.95F WCI  14
6HR MIN TEMP:  18; 6HR MAX TEMP:  25;

MOSINEE        MOSUNNY   25  10  54 W9        29.97F WCI  15
MARSHFIELD     SUNNY     26   9  48 W10       29.96F WCI  16
6HR MIN TEMP:  16; 6HR MAX TEMP:  26;

STEVENS POINT  SUNNY     24   8  51 W12G20    29.99F WCI  13
WAUPACA        SUNNY     29  11  45 W15G21    30.00F WCI  18
WAUTOMA        SUNNY     28  11  48 W14       30.01F WCI  17
6HR MIN TEMP:  20; 6HR MAX TEMP:  28;

WISC RAPIDS    SUNNY     28  10  46 W10G17    30.01F WCI  19
6HR MIN TEMP:  18; 6HR MAX TEMP:  28;

CAMP DOUGLAS   NOT AVBL
$$

WIZ011>013-019>022-031-037>040-048>050-191900-
NORTHEAST WISCONSIN

CITY           SKY/WX    TMP DP  RH WIND       PRES   REMARKS
ANTIGO         SUNNY     22  10  59 NW12G18   29.93S WCI  11
SHAWANO        SUNNY     30  12  45 W9G17     29.96S WCI  22
6HR MIN TEMP:  25; 6HR MAX TEMP:  31;

OCONTO         MOSUNNY   28  11  50 W10G18    29.96S WCI  18
STURGEON BAY   CLOUDY    25  14  63 NW10      29.95S WCI  15
6HR MIN TEMP:  24; 6HR MAX TEMP:  27; 6HR PCP: TRACE;

GREEN BAY      SUNNY     29  16  58 W14       29.97F WCI  18
6HR MIN TEMP:  25; 6HR MAX TEMP:  29;

MANITOWOC      SUNNY     28  15  58 W16       29.96F WCI  16
6HR MIN TEMP:  26; 6HR MAX TEMP:  29; 6HR PCP: TRACE;

APPLETON       SUNNY     28  10  47 W14G25    29.96F WCI  17
CLINTONVILLE   SUNNY     28   9  43 W14       29.98S WCI  17
OSHKOSH        SUNNY     28  13  53 W14G20    29.99S WCI  17
6HR MIN TEMP:  23; 6HR MAX TEMP:  28;

$$

WIZ032>034-041-042-053>061-191900-
SOUTHWEST WISCONSIN

CITY           SKY/WX    TMP DP  RH WIND       PRES   REMARKS
LA CROSSE      SUNNY     32  12  43 W6        30.05F WCI  26
6HR MIN TEMP:  20; 6HR MAX TEMP:  33;

SPARTA         SUNNY     29  13  50 W7        30.05F WCI  22
VIROQUA        SUNNY     28  15  58 W6        30.03F WCI  22
6HR MIN TEMP:  18; 6HR MAX TEMP:  28;

BOSCOBEL       MOSUNNY   32  11  41 W7        30.09F WCI  26
6HR MIN TEMP:  21; 6HR MAX TEMP:  32;

PRAIRIE DU CHI MOSUNNY   32  10  40 W7        30.10F WCI  25
PLATTEVILLE    MOSUNNY   30  16  56 W10       30.08F WCI  21
$$

WIZ056-057-062-063-064-067-068-191900-
SOUTH CENTRAL WISCONSIN

CITY           SKY/WX    TMP DP  RH WIND       PRES   REMARKS
REEDSBURG      SUNNY     29  10  45 NW10      30.04F WCI  19
BARABOO/DELLS  SUNNY     29   9  43 NW9G17    30.04F WCI  20
LONE ROCK      MOSUNNY   31  13  47 W15       30.07F WCI  20
6HR MIN TEMP:  21; 6HR MAX TEMP:  31;

MINERAL POINT  SUNNY     32  16  51 W12       30.05F WCI  23
MADISON        MOSUNNY   29  12  49 VRB7G17   30.04F WCI  22
6HR MIN TEMP:  22; 6HR MAX TEMP:  29;

MIDDLETON      SUNNY     31  13  48 W13       30.05F WCI  21
WATERTOWN      SUNNY     28  13  54 W15G22    30.03S WCI  16
MONROE         SUNNY     30  14  51 W15       30.05F WCI  19
JANESVILLE     MOSUNNY   32  16  51 W15       30.05F WCI  22
$$

WIZ051-052-058>065-066-070>072-191900-
SOUTHEAST WISCONSIN

CITY           SKY/WX    TMP DP  RH WIND       PRES   REMARKS
MILWAUKEE      MOSUNNY   32  15  49 W14G29    30.01R WCI  22
6HR MIN TEMP:  28; 6HR MAX TEMP:  32;

WAUKESHA       SUNNY     28  14  54 W14G24    30.02R WCI  17
MILWAUKEE/TIMM MOSUNNY   30  10  43 NW17G24   30.01S WCI  18
RACINE         SUNNY     32  15  49 W15G29    30.03R WCI  22
6HR MIN TEMP:  27; 6HR MAX TEMP:  32;

BURLINGTON     SUNNY     33  21  62 W13G23    30.03S WCI  24
KENOSHA        SUNNY     33  18  53 W18G26    30.02S WCI  22
6HR MIN TEMP:  28; 6HR MAX TEMP:  33;

FOND DU LAC    SUNNY     30  11  45 W16G24    29.99F WCI  19
6HR MIN TEMP:  23; 6HR MAX TEMP:  30; 6HR PCP: TRACE;

SHEBOYGAN      SUNNY     29  16  58 W15G23    29.97F WCI  18
6HR MIN TEMP:  25; 6HR MAX TEMP:  29;

WEST BEND      SUNNY     28  14  54 W16G22    29.99S WCI  17
JUNEAU         SUNNY     26  14  58 W14G21    30.03S WCI  15
$$

LSZ147-162-191900-
LAKE SUPERIOR

STATION/POSITION TIME  TEMP    WIND        PRES    WAVE
                       AIR SEA DIR/SP/G            HT/PER
                 (UTC) (F)     (DEG/KT/KT) (MB)    (FT/S)
DEVILS ISLAND    1700   22     250/ 17/ 21 1015.3F
SAXON HARBOR     1740   22     230/  5/ 11 1014.2F
$$

LMZ867-665-643>646-191900-
LAKE MICHIGAN

STATION/POSITION TIME  TEMP    WIND        PRES    WAVE
                       AIR SEA DIR/SP/G            HT/PER
                 (UTC) (F)     (DEG/KT/KT) (MB)    (FT/S)
N MID LAKE BUOY  1650   28 48  310/ 17/ 23 1013.1R   4/ 5
NORTHPORT PIER   1740   27     310/ 12/ 17 1013.2S
KEWAUNEE LAKESHO 1730   27     280/ 11/ 14 1013.7F
SHEBOYGAN LAKESH 1700   27     280/ 15/ 19 1015.8F
PORT WASHINGTON  1730   29     290/ 13/ 17 1016.6F
MILWAUKEE LAKESH 1730   29     280/ 14/ 18   N/A
S MID LAKE BUOY  1650   31 49  320/ 17/ 23 1016.2R   5/ 7
KENOSHA   LAKESH 1700   29     270/ 16/ 19 1016.6
$$

TC  - TEMPERATURE IN CELSIUS
VSB - VISIBILITY IN STATUTE MILES
WCI - WIND CHILL INDEX
HX  - HEAT INDEX





USA.gov is the U.S. government's official web portal to all federal, state and local government web resources and services.